ONEWEB-0260 (48978 NORAD) Tracking and Keplerian Element Data

This shows tracking and keplerian element data for the satellite.

Feedback or suggestion? Click here.




ElementValue
Catalog48978
NameONEWEB-0260
Epoch Orbit565
Epoch Day211.25001157
Epoch Year2021
RAAN227.4284
Inclination87.4248
Eccentricity0.0008108
Argument of Perigee145.6338
Mean Anonmoly286.8388
Mean Motion14.97815917
Decay Rate-0.01396605
L11 48978U 21060M 21211.25001157 -.01396605 00000-0 -12980+0 0 9994
L22 48978 87.4248 227.4284 0008108 145.6338 286.8388 14.97815917 5658

Live tracking and technical data element details for ONEWEB-0260 (NORAD 48978). ONEWEB-0260 can be tracked NOW for your location showing map with azimuth and elevation plus other details from your city location.

Track the satellite on the map from your city or location and see movement details for azimuth, elevation, latitude, longitude, range, height, and movement on the map or in text.







IsCatalogInMostPopularTable: catalog: 48978, numindb: 1
Update: records affected: 1



GetName: 48978 ONEWEB-0260

Hit Count: updated at: Sat, 31 Jul 2021 16:27:31 GMT